| time (UTC) | temp C | wind direction | speed KPH | gust KPH | rain 1hr cm | rain 24hr cm | rain mn cm | humidity % | barometer mb |
| 20260504195036 | 21 | 194 | 4.8 | 9.7 | 0.00 | 0.00 | 0.00 | 37 | 1010.1 |
| 20260504194550 | 21 | 178 | 3.2 | 12.9 | 0.00 | 0.00 | 0.00 | 39 | 1010.1 |
| 20260504194031 | 21 | 149 | 3.2 | 12.9 | 0.00 | 0.00 | 0.00 | 39 | 1010.1 |
| 20260504193530 | 22 | 165 | 3.2 | 14.5 | 0.00 | 0.00 | 0.00 | 39 | 1010.2 |
| 20260504193047 | 21 | 185 | 4.8 | 14.5 | 0.00 | 0.00 | 0.00 | 37 | 1010.2 |
| 20260504192534 | 21 | 200 | 6.4 | 11.3 | 0.00 | 0.00 | 0.00 | 37 | 1010.2 |
| 20260504192034 | 22 | 179 | 1.6 | 11.3 | 0.00 | 0.00 | 0.00 | 41 | 1010.3 |
| 20260504191546 | 21 | 166 | 3.2 | 12.9 | 0.00 | 0.00 | 0.00 | 40 | 1010.3 |
| 20260504191034 | 21 | 155 | 4.8 | 12.9 | 0.00 | 0.00 | 0.00 | 37 | 1010.4 |
| 20260504190534 | 21 | 148 | 4.8 | 12.9 | 0.00 | 0.00 | 0.00 | 36 | 1010.3 |
| 20260504190058 | 21 | 199 | 6.4 | 14.5 | 0.00 | 0.00 | 0.00 | 37 | 1010.5 |
| 20260504185534 | 21 | 192 | 3.2 | 14.5 | 0.00 | 0.00 | 0.00 | 37 | 1010.7 |
| 20260504185031 | 21 | 153 | 3.2 | 11.3 | 0.00 | 0.00 | 0.00 | 39 | 1010.7 |
| 20260504184559 | 21 | 175 | 3.2 | 12.9 | 0.00 | 0.00 | 0.00 | 39 | 1010.9 |
| 20260504184031 | 21 | 174 | 6.4 | 12.9 | 0.00 | 0.00 | 0.00 | 38 | 1010.9 |
| 20260504183533 | 22 | 125 | 1.6 | 9.7 | 0.00 | 0.00 | 0.00 | 38 | 1010.9 |
| 20260504183057 | 22 | 202 | 1.6 | 11.3 | 0.00 | 0.00 | 0.00 | 45 | 1011.1 |
| 20260504182537 | 21 | 191 | 3.2 | 11.3 | 0.00 | 0.00 | 0.00 | 38 | 1011.1 |
| 20260504182034 | 21 | 238 | 3.2 | 11.3 | 0.00 | 0.00 | 0.00 | 42 | 1011.1 |
| 20260504181549 | 21 | 182 | 3.2 | 9.7 | 0.00 | 0.00 | 0.00 | 37 | 1011.1 |
| 20260504181035 | 21 | 293 | 3.2 | 11.3 | 0.00 | 0.00 | 0.00 | 36 | 1011.2 |
| 20260504180535 | 21 | 214 | 4.8 | 11.3 | 0.00 | 0.00 | 0.00 | 36 | 1011.2 |
| 20260504180050 | 21 | 205 | 4.8 | 14.5 | 0.00 | 0.00 | 0.00 | 37 | 1011.5 |
| 20260504175535 | 21 | 144 | 3.2 | 14.5 | 0.00 | 0.00 | 0.00 | 41 | 1011.5 |
| 20260504175033 | 21 | 192 | 3.2 | 11.3 | 0.00 | 0.00 | 0.00 | 46 | 1011.6 |
| 20260504174551 | 21 | 198 | 6.4 | 11.3 | 0.00 | 0.00 | 0.00 | 38 | 1011.6 |
| 20260504174031 | 21 | 250 | 3.2 | 12.9 | 0.00 | 0.00 | 0.00 | 42 | 1011.7 |
| 20260504173533 | 21 | 170 | 3.2 | 12.9 | 0.00 | 0.00 | 0.00 | 38 | 1011.6 |
| 20260504173045 | 21 | 173 | 3.2 | 9.7 | 0.00 | 0.00 | 0.00 | 39 | 1011.7 |
| 20260504172530 | 21 | 274 | 4.8 | 11.3 | 0.00 | 0.00 | 0.00 | 42 | 1011.7 |
| 20260504172031 | 20 | 33 | 1.6 | 12.9 | 0.00 | 0.00 | 0.00 | 43 | 1011.8 |
| 20260504171548 | 20 | 171 | 4.8 | 16.1 | 0.00 | 0.00 | 0.00 | 41 | 1011.8 |
| 20260504171031 | 20 | 194 | 3.2 | 16.1 | 0.00 | 0.00 | 0.00 | 42 | 1011.8 |
| 20260504170535 | 20 | 171 | 1.6 | 14.5 | 0.00 | 0.00 | 0.00 | 44 | 1011.9 |
| 20260504151034 | 18 | 169 | 3.2 | 11.3 | 0.00 | 0.00 | 0.00 | 46 | 1013.4 |
| 20260504150531 | 17 | 193 | 4.8 | 17.7 | 0.00 | 0.00 | 0.00 | 47 | 1013.5 |
| 20260504141032 | 16 | 200 | 3.2 | 9.7 | 0.00 | 0.00 | 0.00 | 56 | 1013.7 |
| 20260504140531 | 16 | 241 | 1.6 | 14.5 | 0.00 | 0.00 | 0.00 | 59 | 1013.6 |
| 20260504130530 | 14 | 176 | 3.2 | 8.0 | 0.00 | 0.00 | 0.00 | 59 | 1014.3 |
| 20260504110531 | 6 | 186 | 0.0 | 6.4 | 0.00 | 0.00 | 0.00 | 75 | 1014.8 |
| 20260504100530 | 4 | 0 | 0.0 | 3.2 | 0.00 | 0.00 | 0.00 | 74 | 1014.7 |
| 20260504081548 | 4 | 0 | 0.0 | 0.0 | 0.00 | 0.00 | 0.00 | 75 | 1014.4 |
| 20260504081030 | 4 | 0 | 0.0 | 1.6 | 0.00 | 0.00 | 0.00 | 74 | 1014.4 |
| 20260504080532 | 4 | 0 | 0.0 | 1.6 | 0.00 | 0.00 | 0.00 | 74 | 1014.3 |
| 20260504050534 | 6 | 0 | 0.0 | 1.6 | 0.00 | 0.00 | 0.00 | 66 | 1014.3 |
| 20260504045534 | 6 | 0 | 0.0 | 1.6 | 0.00 | 0.00 | 0.00 | 66 | 1014.3 |
| 20260504045035 | 6 | 0 | 0.0 | 1.6 | 0.00 | 0.00 | 0.00 | 65 | 1014.3 |
| 20260504044552 | 6 | 0 | 0.0 | 1.6 | 0.00 | 0.00 | 0.00 | 65 | 1014.2 |
| 20260504044034 | 6 | 0 | 0.0 | 1.6 | 0.00 | 0.00 | 0.00 | 65 | 1014.2 |
| 20260504043535 | 6 | 0 | 0.0 | 1.6 | 0.00 | 0.00 | 0.00 | 65 | 1014.1 |
| 20260504043044 | 6 | 0 | 0.0 | 1.6 | 0.00 | 0.00 | 0.00 | 65 | 1014.1 |
| 20260504042534 | 6 | 0 | 0.0 | 1.6 | 0.00 | 0.00 | 0.00 | 65 | 1014.0 |
| 20260504042036 | 6 | 0 | 0.0 | 1.6 | 0.00 | 0.00 | 0.00 | 65 | 1013.9 |
| 20260504041548 | 6 | 261 | 0.0 | 1.6 | 0.00 | 0.00 | 0.00 | 65 | 1013.7 |
| 20260504041034 | 6 | 0 | 0.0 | 1.6 | 0.00 | 0.00 | 0.00 | 65 | 1013.6 |
| 20260504040534 | 6 | 0 | 0.0 | 0.0 | 0.00 | 0.00 | 0.00 | 65 | 1013.6 |
| 20260504040046 | 6 | 0 | 0.0 | 0.0 | 0.00 | 0.00 | 0.00 | 65 | 1013.6 |
| 20260504035538 | 6 | 0 | 0.0 | 1.6 | 0.00 | 0.00 | 0.00 | 65 | 1013.6 |
| 20260504035032 | 6 | 0 | 0.0 | 1.6 | 0.00 | 0.00 | 0.00 | 64 | 1013.5 |
| 20260504034546 | 6 | 0 | 0.0 | 1.6 | 0.00 | 0.00 | 0.00 | 64 | 1013.5 |
| 20260504034034 | 6 | 0 | 0.0 | 0.0 | 0.00 | 0.00 | 0.00 | 64 | 1013.5 |
| 20260504033532 | 6 | 0 | 0.0 | 1.6 | 0.00 | 0.00 | 0.00 | 64 | 1013.5 |
| 20260504033047 | 6 | 0 | 0.0 | 1.6 | 0.00 | 0.00 | 0.00 | 64 | 1013.5 |
| 20260504032535 | 7 | 0 | 0.0 | 1.6 | 0.00 | 0.00 | 0.00 | 64 | 1013.4 |
| 20260504032031 | 7 | 0 | 0.0 | 0.0 | 0.00 | 0.00 | 0.00 | 64 | 1013.4 |
| 20260504031544 | 7 | 0 | 0.0 | 0.0 | 0.00 | 0.00 | 0.00 | 64 | 1013.4 |
| 20260504031030 | 7 | 0 | 0.0 | 0.0 | 0.00 | 0.00 | 0.00 | 63 | 1013.4 |
| 20260504030535 | 7 | 0 | 0.0 | 1.6 | 0.00 | 0.00 | 0.00 | 63 | 1013.3 |
| 20260504030046 | 7 | 0 | 0.0 | 1.6 | 0.00 | 0.00 | 0.00 | 63 | 1013.3 |
| 20260504025534 | 7 | 0 | 0.0 | 1.6 | 0.00 | 0.00 | 0.00 | 62 | 1013.3 |
| 20260504025034 | 7 | 0 | 0.0 | 1.6 | 0.00 | 0.00 | 0.00 | 62 | 1013.3 |
| 20260504024540 | 7 | 0 | 0.0 | 1.6 | 0.00 | 0.00 | 0.00 | 62 | 1013.3 |
| 20260504024034 | 7 | 0 | 0.0 | 0.0 | 0.00 | 0.00 | 0.00 | 61 | 1013.4 |
| 20260504023534 | 7 | 0 | 0.0 | 1.6 | 0.00 | 0.00 | 0.00 | 61 | 1013.3 |
| 20260504023044 | 7 | 0 | 0.0 | 1.6 | 0.00 | 0.00 | 0.00 | 61 | 1013.3 |
| 20260504022534 | 7 | 0 | 0.0 | 1.6 | 0.00 | 0.00 | 0.00 | 60 | 1013.3 |
| 20260504022034 | 8 | 0 | 0.0 | 1.6 | 0.00 | 0.00 | 0.00 | 60 | 1013.3 |
| 20260504021548 | 8 | 0 | 0.0 | 0.0 | 0.00 | 0.00 | 0.00 | 59 | 1013.3 |
| 20260504021037 | 8 | 0 | 0.0 | 0.0 | 0.00 | 0.00 | 0.00 | 58 | 1013.3 |
| 20260504020531 | 8 | 0 | 0.0 | 0.0 | 0.00 | 0.00 | 0.00 | 57 | 1013.3 |
| 20260504020045 | 8 | 0 | 0.0 | 0.0 | 0.00 | 0.00 | 0.00 | 57 | 1013.2 |
| 20260504015535 | 8 | 0 | 0.0 | 0.0 | 0.00 | 0.00 | 0.00 | 56 | 1013.3 |
| 20260504015036 | 8 | 0 | 0.0 | 0.0 | 0.00 | 0.00 | 0.00 | 55 | 1013.3 |
| 20260504014558 | 8 | 0 | 0.0 | 0.0 | 0.00 | 0.00 | 0.00 | 54 | 1013.2 |
| 20260504014035 | 9 | 0 | 0.0 | 0.0 | 0.00 | 0.00 | 0.00 | 53 | 1013.2 |
| 20260504013533 | 9 | 0 | 0.0 | 0.0 | 0.00 | 0.00 | 0.00 | 52 | 1013.1 |
| 20260504013050 | 9 | 0 | 0.0 | 0.0 | 0.00 | 0.00 | 0.00 | 53 | 1013.1 |
| 20260504012531 | 9 | 0 | 0.0 | 0.0 | 0.00 | 0.00 | 0.00 | 52 | 1013.2 |
| 20260504012031 | 9 | 0 | 0.0 | 0.0 | 0.00 | 0.00 | 0.00 | 52 | 1013.1 |
| 20260504011544 | 10 | 0 | 0.0 | 0.0 | 0.00 | 0.00 | 0.00 | 51 | 1013.0 |
| 20260504011030 | 10 | 0 | 0.0 | 0.0 | 0.00 | 0.00 | 0.00 | 51 | 1013.0 |
| 20260504010530 | 10 | 0 | 0.0 | 0.0 | 0.00 | 0.00 | 0.00 | 50 | 1012.8 |
| 20260504010048 | 10 | 0 | 0.0 | 1.6 | 0.00 | 0.00 | 0.00 | 50 | 1012.8 |
| 20260504005530 | 10 | 0 | 0.0 | 1.6 | 0.00 | 0.00 | 0.00 | 49 | 1012.7 |
| 20260504005030 | 10 | 0 | 0.0 | 1.6 | 0.00 | 0.00 | 0.00 | 48 | 1012.6 |
| 20260504004545 | 10 | 0 | 0.0 | 1.6 | 0.00 | 0.00 | 0.00 | 48 | 1012.6 |
| 20260504004032 | 11 | 0 | 0.0 | 1.6 | 0.00 | 0.00 | 0.00 | 48 | 1012.6 |
| 20260504003531 | 11 | 0 | 0.0 | 1.6 | 0.00 | 0.00 | 0.00 | 47 | 1012.5 |
| 20260504003050 | 11 | 0 | 0.0 | 1.6 | 0.00 | 0.00 | 0.00 | 46 | 1012.4 |
| 20260504002531 | 11 | 0 | 0.0 | 1.6 | 0.00 | 0.00 | 0.00 | 46 | 1012.4 |
| 20260504002031 | 11 | 0 | 0.0 | 1.6 | 0.00 | 0.00 | 0.00 | 45 | 1012.3 |
| 20260504001546 | 12 | 0 | 0.0 | 1.6 | 0.00 | 0.00 | 0.00 | 44 | 1012.2 |
| 20260504001031 | 12 | 0 | 0.0 | 1.6 | 0.00 | 0.00 | 0.00 | 43 | 1012.2 |
| 20260504000530 | 12 | 0 | 0.0 | 1.6 | 0.00 | 0.00 | 0.00 | 42 | 1012.2 |
| 20260504000048 | 12 | 0 | 0.0 | 3.2 | 0.00 | 0.00 | 0.00 | 42 | 1012.0 |
| 20260503235530 | 12 | 0 | 0.0 | 3.2 | 0.00 | 0.00 | 0.00 | 41 | 1011.9 |
| 20260503235030 | 13 | 0 | 0.0 | 4.8 | 0.00 | 0.00 | 0.00 | 40 | 1012.0 |
| 20260503234548 | 13 | 193 | 0.0 | 4.8 | 0.00 | 0.00 | 0.00 | 39 | 1011.9 |
| 20260503234031 | 13 | 315 | 0.0 | 4.8 | 0.00 | 0.00 | 0.00 | 39 | 1011.9 |
| 20260503233531 | 13 | 202 | 1.6 | 4.8 | 0.00 | 0.00 | 0.00 | 37 | 1011.9 |
| 20260503233043 | 13 | 221 | 0.0 | 3.2 | 0.00 | 0.00 | 0.00 | 38 | 1011.8 |
| 20260503232530 | 13 | 0 | 0.0 | 4.8 | 0.00 | 0.00 | 0.00 | 37 | 1011.9 |
| 20260503232030 | 13 | 0 | 0.0 | 4.8 | 0.00 | 0.00 | 0.00 | 37 | 1011.8 |
| 20260503231542 | 14 | 68 | 0.0 | 4.8 | 0.00 | 0.00 | 0.00 | 35 | 1011.9 |
| 20260503231033 | 14 | 93 | 0.0 | 4.8 | 0.00 | 0.00 | 0.00 | 36 | 1011.8 |
| 20260503230530 | 14 | 159 | 0.0 | 12.9 | 0.00 | 0.00 | 0.00 | 34 | 1011.8 |
| 20260503230047 | 14 | 43 | 0.0 | 12.9 | 0.00 | 0.00 | 0.00 | 34 | 1011.7 |
| 20260503225534 | 14 | 323 | 0.0 | 9.7 | 0.00 | 0.00 | 0.00 | 34 | 1011.8 |
| 20260503225031 | 15 | 75 | 1.6 | 9.7 | 0.00 | 0.00 | 0.00 | 34 | 1011.7 |
| 20260503224544 | 15 | 153 | 3.2 | 9.7 | 0.00 | 0.00 | 0.00 | 34 | 1011.6 |
| 20260503224031 | 15 | 282 | 1.6 | 12.9 | 0.00 | 0.00 | 0.00 | 33 | 1011.6 |
| 20260503223531 | 15 | 0 | 0.0 | 12.9 | 0.00 | 0.00 | 0.00 | 33 | 1011.6 |
| 20260503223045 | 15 | 59 | 3.2 | 12.9 | 0.00 | 0.00 | 0.00 | 31 | 1011.6 |
| 20260503222534 | 15 | 67 | 3.2 | 12.9 | 0.00 | 0.00 | 0.00 | 32 | 1011.6 |
| 20260503222034 | 15 | 13 | 3.2 | 12.9 | 0.00 | 0.00 | 0.00 | 31 | 1011.6 |
| 20260503221545 | 15 | 290 | 3.2 | 12.9 | 0.00 | 0.00 | 0.00 | 33 | 1011.5 |
| 20260503221033 | 15 | 276 | 3.2 | 9.7 | 0.00 | 0.00 | 0.00 | 34 | 1011.5 |
| 20260503220534 | 15 | 19 | 1.6 | 14.5 | 0.00 | 0.00 | 0.00 | 33 | 1011.6 |
| 20260503220050 | 15 | 51 | 3.2 | 14.5 | 0.00 | 0.00 | 0.00 | 33 | 1011.6 |
| 20260503215535 | 15 | 251 | 3.2 | 11.3 | 0.00 | 0.00 | 0.00 | 31 | 1011.6 |
| 20260503215034 | 15 | 168 | 3.2 | 14.5 | 0.00 | 0.00 | 0.00 | 33 | 1011.6 |
| 20260503214546 | 15 | 194 | 3.2 | 14.5 | 0.00 | 0.00 | 0.00 | 31 | 1011.6 |
| 20260503214031 | 15 | 286 | 3.2 | 14.5 | 0.00 | 0.00 | 0.00 | 33 | 1011.7 |
| 20260503213534 | 15 | 344 | 3.2 | 17.7 | 0.00 | 0.00 | 0.00 | 32 | 1011.6 |
| 20260503213045 | 15 | 298 | 4.8 | 19.3 | 0.00 | 0.00 | 0.00 | 35 | 1011.6 |
| 20260503212535 | 15 | 11 | 4.8 | 19.3 | 0.00 | 0.00 | 0.00 | 34 | 1011.5 |
| 20260503212035 | 15 | 244 | 3.2 | 19.3 | 0.00 | 0.00 | 0.00 | 32 | 1011.5 |
| 20260503211544 | 15 | 34 | 4.8 | 19.3 | 0.00 | 0.00 | 0.00 | 34 | 1011.5 |
| 20260503211034 | 15 | 306 | 3.2 | 9.7 | 0.00 | 0.00 | 0.00 | 33 | 1011.4 |
| 20260503210535 | 15 | 235 | 3.2 | 9.7 | 0.00 | 0.00 | 0.00 | 34 | 1011.5 |
| 20260503210047 | 15 | 347 | 3.2 | 19.3 | 0.00 | 0.00 | 0.00 | 34 | 1011.6 |
| 20260503205534 | 15 | 5 | 3.2 | 19.3 | 0.00 | 0.00 | 0.00 | 36 | 1011.6 |
| 20260503205035 | 14 | 13 | 4.8 | 19.3 | 0.00 | 0.00 | 0.00 | 34 | 1011.7 |
| 20260503204545 | 14 | 153 | 3.2 | 19.3 | 0.00 | 0.00 | 0.00 | 34 | 1011.6 |
| 20260503204033 | 15 | 333 | 4.8 | 19.3 | 0.00 | 0.00 | 0.00 | 35 | 1011.8 |
| 20260503203535 | 15 | 217 | 3.2 | 16.1 | 0.00 | 0.00 | 0.00 | 34 | 1011.6 |
| 20260503203052 | 15 | 24 | 3.2 | 16.1 | 0.00 | 0.00 | 0.00 | 37 | 1011.7 |
| 20260503202534 | 15 | 249 | 3.2 | 12.9 | 0.00 | 0.00 | 0.00 | 35 | 1011.8 |
| 20260503202031 | 14 | 140 | 3.2 | 22.5 | 0.00 | 0.00 | 0.00 | 34 | 1011.7 |
| 20260503201552 | 15 | 258 | 3.2 | 22.5 | 0.00 | 0.00 | 0.00 | 36 | 1011.8 |
| 20260503201035 | 15 | 65 | 3.2 | 17.7 | 0.00 | 0.00 | 0.00 | 35 | 1011.8 |
| 20260503200537 | 15 | 259 | 3.2 | 17.7 | 0.00 | 0.00 | 0.00 | 38 | 1011.8 |
| 20260503200049 | 14 | 342 | 4.8 | 17.7 | 0.00 | 0.00 | 0.00 | 38 | 1011.9 |
| 20260503195534 | 14 | 5 | 3.2 | 17.7 | 0.00 | 0.00 | 0.00 | 38 | 1012.0 |